Change the Weather History Date:

Monday, September 24, 2012

  Actual Average Record
Temperature  
Mean Temperature 57 °F -  
Max Temperature 82 °F 66 °F 82 °F (2012)
Min Temperature 32 °F 41 °F 26 °F (2002)
Degree Days  
Heating Degree Days 8    
Growing Degree Days 7 (Base 50)    
Moisture  
Dew Point 29 °F    
Average Humidity 46    
Maximum Humidity 87    
Minimum Humidity 12    
Precipitation  
Precipitation 0.00 in - - ()
Sea Level Pressure  
Sea Level Pressure 29.89 in    
Wind  
Wind Speed 4 mph (WSW)    
Max Wind Speed 16 mph    
Max Gust Speed 24 mph    
Visibility 9 miles    
Events      
Averages and records for this station are not official NWS values.
T = Trace of Precipitation, MM = Missing Value Source: NWS Daily Summary

Daily Weather History Graph

Daily Weather History Graph

Search for Another Location

Airport or City:

Trip Planner

Search our weather history database for the weather conditions in past years. The results will help you decide how hot, cold, wet, or windy it might be!

Date:

Astronomy

Sep. 24, 2012 Rise Set
Actual Time 7:14 AM CDT 7:16 PM CDT
Civil Twilight 6:44 AM CDT 7:46 PM CDT
Nautical Twilight 6:10 AM CDT 8:20 PM CDT
Astronomical Twilight 5:34 AM CDT 8:55 PM CDT
Moon 4:15 PM CDT (9/24) 1:17 AM CDT (9/24)
Length of Visible Light 13h 01m
Length of Day
12h 02m
Waxing Gibbous, 71% of the Moon is Illuminated
Sep 24
Waxing Gibbous
Sep 29
Full
Oct 8
Last Quarter
Oct 15
New
Oct 21
First Quarter

Hourly Weather History & Observations

Time (CDT) Temp. Windchill Dew Point Humidity Pressure Visibility Wind Dir Wind Speed Gust Speed Precip Events Conditions
12:14 AM 37.4 °F 34.9 °F 24.8 °F 60% 30.13 in 10.0 mi SSE 3.5 mph - N/A   Clear
12:33 AM 33.8 °F - 24.8 °F 70% 30.13 in 10.0 mi Calm Calm - N/A   Clear
12:53 AM 35.6 °F 31.7 °F 26.6 °F 70% 30.12 in 10.0 mi South 4.6 mph - N/A   Clear
1:13 AM 35.6 °F - 24.8 °F 65% 30.11 in 3.0 mi Calm Calm - N/A   Haze
1:33 AM 35.6 °F - 24.8 °F 65% 30.11 in 4.0 mi Calm Calm - N/A   Haze
1:53 AM 33.8 °F - 24.8 °F 70% 30.11 in 7.0 mi Calm Calm - N/A   Clear
2:13 AM 35.6 °F 31.7 °F 28.4 °F 75% 30.10 in 10.0 mi South 4.6 mph - N/A   Clear
2:34 AM 35.6 °F - 24.8 °F 65% 30.09 in 7.0 mi Calm Calm - N/A   Clear
3:14 AM 32.0 °F - 24.8 °F 75% 30.07 in 5.0 mi Calm Calm - N/A   Haze
3:34 AM 33.8 °F - 26.6 °F 75% 30.06 in 2.5 mi Calm Calm - N/A   Haze
3:53 AM 32.0 °F - 26.6 °F 80% 30.06 in 3.0 mi Calm Calm - N/A   Haze
4:13 AM 33.8 °F - 28.4 °F 81% 30.04 in 10.0 mi Calm Calm - N/A   Clear
4:33 AM 35.6 °F 32.8 °F 28.4 °F 75% 30.03 in 10.0 mi SSE 3.5 mph - N/A   Clear
4:54 AM 33.8 °F 30.8 °F 28.4 °F 81% 30.01 in 3.0 mi East 3.5 mph - N/A   Haze
5:14 AM 33.8 °F 30.8 °F 28.4 °F 81% 30.00 in 1.8 mi SE 3.5 mph - N/A   Haze
5:33 AM 33.8 °F - 26.6 °F 75% 30.00 in 1.8 mi Calm Calm - N/A   Haze
5:53 AM 33.8 °F 30.8 °F 26.6 °F 75% 29.99 in 10.0 mi South 3.5 mph - N/A   Clear
6:14 AM 33.8 °F - 28.4 °F 81% 29.99 in 10.0 mi Calm Calm - N/A   Clear
6:33 AM 32.0 °F - 26.6 °F 80% 29.98 in 2.0 mi Calm Calm - N/A   Haze
6:53 AM 32.0 °F - 28.4 °F 87% 29.97 in 4.0 mi Calm Calm - N/A   Clear
7:14 AM 33.8 °F - 28.4 °F 81% 29.96 in 3.0 mi Calm Calm - N/A   Haze
7:34 AM 35.6 °F 29.9 °F 30.2 °F 81% 29.95 in 10.0 mi South 6.9 mph - N/A   Clear
7:54 AM 39.2 °F 35.9 °F 30.2 °F 70% 29.95 in 10.0 mi South 4.6 mph - N/A   Clear
8:14 AM 42.8 °F 41.1 °F 30.2 °F 61% 29.95 in 10.0 mi South 3.5 mph - N/A   Clear
8:34 AM 44.6 °F 42.2 °F 33.8 °F 66% 29.94 in 10.0 mi South 4.6 mph - N/A   Clear
8:54 AM 50.0 °F - 30.2 °F 47% 29.93 in 10.0 mi SW 6.9 mph - N/A   Clear
9:13 AM 51.8 °F - 32.0 °F 47% 29.92 in 10.0 mi SW 6.9 mph - N/A   Clear
9:53 AM 57.2 °F - 33.8 °F 41% 29.91 in 10.0 mi WSW 9.2 mph - N/A   Clear
10:14 AM 60.8 °F - 33.8 °F 36% 29.91 in 10.0 mi West 6.9 mph - N/A   Clear
10:34 AM 62.6 °F - 33.8 °F 34% 29.90 in 10.0 mi SW 6.9 mph - N/A   Clear
10:53 AM 64.4 °F - 33.8 °F 32% 29.90 in 10.0 mi West 9.2 mph - N/A   Clear
11:13 AM 66.2 °F - 32.0 °F 28% 29.90 in 10.0 mi West 9.2 mph - N/A   Clear
11:33 AM 68.0 °F - 30.2 °F 24% 29.89 in 10.0 mi West 8.1 mph - N/A   Clear
12:14 PM 71.6 °F - 24.8 °F 17% 29.88 in 10.0 mi West 9.2 mph - N/A   Clear
12:54 PM 75.2 °F - 21.2 °F 13% 29.87 in 10.0 mi WNW 8.1 mph - N/A   Clear
1:14 PM 75.2 °F - 21.2 °F 13% 29.85 in 10.0 mi WSW 10.4 mph 19.6 mph N/A   Clear
1:33 PM 77.0 °F - 21.2 °F 12% 29.85 in 10.0 mi WSW 8.1 mph - N/A   Clear
1:53 PM 77.0 °F - 21.2 °F 12% 29.83 in 10.0 mi WSW 10.4 mph 16.1 mph N/A   Clear
2:13 PM 78.8 °F - 21.2 °F 12% 29.82 in 10.0 mi SW 11.5 mph 18.4 mph N/A   Clear
2:33 PM 78.8 °F - 23.0 °F 13% 29.81 in 10.0 mi West 15.0 mph 20.7 mph N/A   Clear
2:56 PM 80.6 °F - 24.8 °F 13% 29.80 in 10.0 mi West 10.4 mph - N/A   Clear
3:16 PM 80.6 °F - 24.8 °F 13% 29.79 in 10.0 mi West 16.1 mph 19.6 mph N/A   Clear
3:58 PM 82.4 °F - 26.6 °F 13% 29.77 in 10.0 mi WNW 11.5 mph 16.1 mph N/A   Clear
4:14 PM 80.6 °F - 26.6 °F 14% 29.77 in 10.0 mi West 16.1 mph 19.6 mph N/A   Clear
4:33 PM 80.6 °F - 26.6 °F 14% 29.76 in 10.0 mi West 12.7 mph 24.2 mph N/A   Clear
4:53 PM 80.6 °F - 28.4 °F 15% 29.76 in 10.0 mi West 13.8 mph 21.9 mph N/A   Clear
5:14 PM 80.6 °F - 28.4 °F 15% 29.76 in 10.0 mi WNW 13.8 mph 18.4 mph N/A   Clear
5:34 PM 80.6 °F - 28.4 °F 15% 29.75 in 10.0 mi WNW 12.7 mph 18.4 mph N/A   Clear
5:54 PM 80.6 °F - 28.4 °F 15% 29.75 in 10.0 mi West 13.8 mph - N/A   Clear
6:13 PM 78.8 °F - 30.2 °F 17% 29.75 in 10.0 mi West 9.2 mph - N/A   Clear
6:53 PM 73.4 °F - 32.0 °F 22% 29.75 in 10.0 mi WSW 6.9 mph - N/A   Clear
7:13 PM 71.6 °F - 33.8 °F 25% 29.75 in 10.0 mi WSW 6.9 mph - N/A   Clear
7:33 PM 66.2 °F - 33.8 °F 30% 29.75 in 10.0 mi WSW 6.9 mph - N/A   Clear
7:53 PM 64.4 °F - 33.8 °F 32% 29.75 in 7.0 mi WSW 5.8 mph - N/A   Clear
8:13 PM 64.4 °F - 33.8 °F 32% 29.75 in 10.0 mi WSW 8.1 mph - N/A   Clear
8:34 PM 62.6 °F - 33.8 °F 34% 29.75 in 10.0 mi WSW 8.1 mph - N/A   Clear
8:54 PM 62.6 °F - 33.8 °F 34% 29.76 in 10.0 mi WSW 6.9 mph - N/A   Clear
9:14 PM 60.8 °F - 35.6 °F 39% 29.76 in 4.0 mi WSW 5.8 mph - N/A   Haze
9:33 PM 57.2 °F - 35.6 °F 44% 29.77 in 10.0 mi WSW 4.6 mph - N/A   Clear
9:53 PM 57.2 °F - 35.6 °F 44% 29.78 in 10.0 mi West 4.6 mph - N/A   Clear
10:14 PM 55.4 °F - 35.6 °F 47% 29.79 in 10.0 mi West 4.6 mph - N/A   Clear
10:33 PM 55.4 °F - 33.8 °F 44% 29.79 in 10.0 mi West 3.5 mph - N/A   Clear
10:54 PM 53.6 °F - 35.6 °F 51% 29.80 in 10.0 mi Calm Calm - N/A   Clear
11:14 PM 53.6 °F - 35.6 °F 51% 29.81 in 10.0 mi North 3.5 mph - N/A   Clear
11:33 PM 53.6 °F - 35.6 °F 51% 29.81 in 10.0 mi Calm Calm - N/A   Clear
11:54 PM 51.8 °F - 35.6 °F 54% 29.82 in 7.0 mi Calm Calm - N/A   Clear